When you browse on this site, cookies collect data to enhance your experience and personalize the content and advertising you see.
Visit our Privacy Policy to learn more. By continuing to use the site, you agree to this use of cookies and data.

Hourly Weather Lodino

Today, 16 July, Thursday

Time Temperature Precipitation Wind Pressure Humidity
00:00 +14°C° 0 mm 1 mps 748 mmHg 85%
01:00 +13°C° 0 mm 1 mps 748 mmHg 85%
02:00 +13°C° 0 mm 1 mps 748 mmHg 85%
03:00 +13°C° 0 mm 1 mps 748 mmHg 86%
04:00 +12°C° 0 mm 0 mps 747 mmHg 87%
05:00 +12°C° 0 mm 0 mps 747 mmHg 89%
06:00 +15°C° 0 mm 1 mps 747 mmHg 85%
07:00 +18°C° 0 mm 1 mps 747 mmHg 81%
08:00 +20°C° 0 mm 1 mps 748 mmHg 77%
09:00 +21°C° 0.2 mm 1 mps 748 mmHg 73%
10:00 +23°C° 0.2 mm 1 mps 747 mmHg 68%
11:00 +24°C° 0.2 mm 1 mps 747 mmHg 64%
12:00 +25°C° 0.3 mm 1 mps 747 mmHg 62%
13:00 +25°C° 0.3 mm 1 mps 747 mmHg 60%
14:00 +26°C° 0.3 mm 1 mps 747 mmHg 58%
15:00 +25°C° 0.2 mm 1 mps 746 mmHg 59%
16:00 +25°C° 0.2 mm 1 mps 746 mmHg 60%
17:00 +25°C° 0.2 mm 1 mps 746 mmHg 62%
18:00 +23°C° 0.1 mm 1 mps 746 mmHg 69%
19:00 +21°C° 0.1 mm 1 mps 746 mmHg 77%
20:00 +19°C° 0.1 mm 2 mps 746 mmHg 84%
21:00 +18°C° 0 mm 2 mps 746 mmHg 86%
22:00 +17°C° 0 mm 2 mps 746 mmHg 88%
23:00 +16°C° 0 mm 2 mps 746 mmHg 91%

Tomorrow, 17 July, Friday

Time Temperature Precipitation Wind Pressure Humidity
00:00 +16°C° 0 mm 2 mps 747 mmHg 91%
01:00 +16°C° 0 mm 1 mps 747 mmHg 92%
02:00 +15°C° 0 mm 1 mps 747 mmHg 93%
03:00 +15°C° 0 mm 1 mps 747 mmHg 94%
04:00 +15°C° 0 mm 1 mps 747 mmHg 94%
05:00 +15°C° 0 mm 1 mps 747 mmHg 95%
06:00 +16°C° 0 mm 1 mps 747 mmHg 89%
07:00 +18°C° 0 mm 2 mps 747 mmHg 84%
08:00 +20°C° 0 mm 2 mps 748 mmHg 79%
09:00 +21°C° 0.1 mm 2 mps 748 mmHg 74%
10:00 +24°C° 0.1 mm 2 mps 748 mmHg 69%
11:00 +25°C° 0.1 mm 2 mps 747 mmHg 64%
12:00 +25°C° 0.9 mm 2 mps 747 mmHg 64%
13:00 +26°C° 0.9 mm 2 mps 747 mmHg 65%
14:00 +26°C° 0.9 mm 2 mps 748 mmHg 66%
15:00 +25°C° 0.9 mm 2 mps 748 mmHg 69%
16:00 +25°C° 0.9 mm 2 mps 748 mmHg 73%
17:00 +25°C° 0.9 mm 2 mps 748 mmHg 76%
18:00 +24°C° 0.2 mm 2 mps 748 mmHg 79%
19:00 +21°C° 0.2 mm 2 mps 748 mmHg 82%
20:00 +20°C° 0.2 mm 2 mps 748 mmHg 85%
21:00 +19°C° 0.2 mm 2 mps 748 mmHg 87%
22:00 +18°C° 0.2 mm 2 mps 748 mmHg 90%
23:00 +17°C° 0.2 mm 2 mps 749 mmHg 92%

Day after tomorrow, 18 July, Saturday

Time Temperature Precipitation Wind Pressure Humidity
00:00 +17°C° 0.2 mm 2 mps 749 mmHg 93%
01:00 +17°C° 0.2 mm 2 mps 749 mmHg 93%
02:00 +16°C° 0.2 mm 2 mps 749 mmHg 94%
03:00 +16°C° 0.1 mm 2 mps 749 mmHg 94%
04:00 +16°C° 0.1 mm 2 mps 749 mmHg 95%
05:00 +16°C° 0.1 mm 2 mps 749 mmHg 96%
06:00 +17°C° 0 mm 2 mps 750 mmHg 93%
07:00 +19°C° 0 mm 2 mps 750 mmHg 90%
08:00 +20°C° 0 mm 2 mps 750 mmHg 87%
09:00 +23°C° 0.4 mm 2 mps 750 mmHg 80%
10:00 +24°C° 0.4 mm 2 mps 750 mmHg 74%
11:00 +26°C° 0.4 mm 2 mps 750 mmHg 68%
12:00 +27°C° 0.4 mm 2 mps 750 mmHg 64%
13:00 +27°C° 0.4 mm 2 mps 750 mmHg 61%
14:00 +28°C° 0.4 mm 2 mps 750 mmHg 57%
15:00 +27°C° 0.7 mm 2 mps 750 mmHg 64%
16:00 +26°C° 0.7 mm 3 mps 750 mmHg 71%
17:00 +25°C° 0.7 mm 3 mps 749 mmHg 78%
18:00 +24°C° 0.4 mm 3 mps 750 mmHg 81%
19:00 +22°C° 0.4 mm 3 mps 750 mmHg 85%
20:00 +20°C° 0.4 mm 3 mps 750 mmHg 88%
21:00 +20°C° 0.3 mm 2 mps 750 mmHg 90%
22:00 +19°C° 0.3 mm 2 mps 750 mmHg 92%
23:00 +18°C° 0.3 mm 2 mps 750 mmHg 93%

19 July, Sunday

Time Temperature Precipitation Wind Pressure Humidity
00:00 +18°C° 0.4 mm 2 mps 750 mmHg 94%
01:00 +17°C° 0.4 mm 2 mps 750 mmHg 95%
02:00 +17°C° 0.4 mm 2 mps 750 mmHg 96%
03:00 +17°C° 0.2 mm 2 mps 750 mmHg 96%
04:00 +17°C° 0.2 mm 2 mps 750 mmHg 97%
05:00 +17°C° 0.2 mm 2 mps 750 mmHg 97%
06:00 +18°C° 0.2 mm 2 mps 750 mmHg 95%
07:00 +19°C° 0.2 mm 2 mps 750 mmHg 92%
08:00 +21°C° 0.2 mm 2 mps 750 mmHg 89%
09:00 +22°C° 1 mm 3 mps 750 mmHg 86%
10:00 +24°C° 1 mm 3 mps 750 mmHg 82%
11:00 +25°C° 1 mm 4 mps 750 mmHg 79%
12:00 +25°C° 2.1 mm 4 mps 750 mmHg 78%
13:00 +25°C° 2.1 mm 3 mps 749 mmHg 77%
14:00 +25°C° 2.1 mm 3 mps 749 mmHg 76%
15:00 +25°C° 1.2 mm 3 mps 749 mmHg 77%
16:00 +25°C° 1.2 mm 3 mps 749 mmHg 78%
17:00 +25°C° 1.2 mm 2 mps 748 mmHg 79%
18:00 +24°C° 0.2 mm 2 mps 748 mmHg 83%
19:00 +21°C° 0.2 mm 2 mps 748 mmHg 86%
20:00 +20°C° 0.2 mm 2 mps 748 mmHg 89%
21:00 +19°C° 0.1 mm 2 mps 748 mmHg 90%
22:00 +18°C° 0.1 mm 2 mps 748 mmHg 92%
23:00 +18°C° 0.1 mm 2 mps 748 mmHg 93%

20 July, Monday

Time Temperature Precipitation Wind Pressure Humidity
00:00 +17°C° 0.1 mm 2 mps 748 mmHg 93%
01:00 +17°C° 0.1 mm 2 mps 748 mmHg 93%
02:00 +16°C° 0.1 mm 2 mps 748 mmHg 93%
03:00 +16°C° 0 mm 2 mps 748 mmHg 93%
04:00 +16°C° 0 mm 2 mps 747 mmHg 93%
05:00 +16°C° 0 mm 2 mps 747 mmHg 93%
06:00 +17°C° 0 mm 2 mps 747 mmHg 91%
07:00 +18°C° 0 mm 2 mps 747 mmHg 88%
08:00 +20°C° 0 mm 2 mps 747 mmHg 86%
09:00 +21°C° 0.4 mm 3 mps 747 mmHg 81%
10:00 +22°C° 0.4 mm 3 mps 747 mmHg 77%
11:00 +25°C° 0.4 mm 3 mps 747 mmHg 73%
12:00 +25°C° 0.2 mm 3 mps 746 mmHg 69%
13:00 +26°C° 0.2 mm 3 mps 746 mmHg 65%
14:00 +27°C° 0.2 mm 3 mps 746 mmHg 62%
15:00 +26°C° 0.4 mm 3 mps 746 mmHg 64%
16:00 +26°C° 0.4 mm 2 mps 745 mmHg 67%
17:00 +26°C° 0.4 mm 2 mps 745 mmHg 70%
18:00 +24°C° 0 mm 2 mps 745 mmHg 75%
19:00 +22°C° 0 mm 1 mps 745 mmHg 80%
20:00 +21°C° 0 mm 1 mps 745 mmHg 85%
21:00 +20°C° 0 mm 1 mps 745 mmHg 86%
22:00 +19°C° 0 mm 1 mps 745 mmHg 87%
23:00 +16°C° 0 mm 0 mps 745 mmHg 89%

21 July, Tuesday

Time Temperature Precipitation Wind Pressure Humidity
00:00 +16°C° 0 mm 0 mps 745 mmHg 89%
01:00 +15°C° 0 mm 0 mps 745 mmHg 90%
02:00 +15°C° 0 mm 0 mps 744 mmHg 90%
03:00 +15°C° 0 mm 0 mps 744 mmHg 90%
04:00 +15°C° 0 mm 0 mps 744 mmHg 90%
05:00 +15°C° 0 mm 0 mps 744 mmHg 90%
06:00 +17°C° 0 mm 0 mps 744 mmHg 86%
07:00 +19°C° 0 mm 0 mps 744 mmHg 81%
08:00 +20°C° 0 mm 0 mps 744 mmHg 76%
09:00 +24°C° 0.1 mm 1 mps 744 mmHg 71%
10:00 +25°C° 0.1 mm 1 mps 744 mmHg 65%
11:00 +26°C° 0.1 mm 1 mps 744 mmHg 60%
12:00 +26°C° 0.1 mm 2 mps 744 mmHg 61%
13:00 +26°C° 0.1 mm 3 mps 743 mmHg 62%
14:00 +26°C° 0.1 mm 4 mps 743 mmHg 63%
15:00 +25°C° 0.5 mm 4 mps 743 mmHg 69%
16:00 +23°C° 0.5 mm 4 mps 744 mmHg 75%
17:00 +23°C° 0.5 mm 4 mps 744 mmHg 81%
18:00 +21°C° 0.3 mm 4 mps 744 mmHg 85%
19:00 +20°C° 0.3 mm 4 mps 744 mmHg 89%
20:00 +19°C° 0.3 mm 5 mps 745 mmHg 93%
21:00 +18°C° 0 mm 4 mps 745 mmHg 93%
22:00 +17°C° 0 mm 4 mps 745 mmHg 93%
23:00 +15°C° 0 mm 4 mps 746 mmHg 93%
Show more